COSMOS 2529 (757)

Last updated on Wed Oct 29 2025 00:03:19 GMT+0000 (Coordinated Universal Time)

1 43687U 18086A 25300.42870316 .00000018 00000+0 00000+0 0 9999 2 43687 64.2918 200.4526 0008672 256.4514 103.5192 2.13101986 54325
UTC large
Height (km)
Speed (km/s)
/
Latitude / Longitude
Inclination (degrees)
Orbital Period (minutes)
Azimuth
Elevation
Range (km)
Doppler Factor

Next 0 passes for location: London (51.5072 / 0.1276)

Sorry there are no passes over London.